COSMOS 832

导读

COSMOS 832隶属于苏联/俄罗斯**宇宙号(Cosmos)**系列卫星,该系列是全球规模最大的多用途卫星家族,编号超2450颗,多数承担军用任务。该卫星于**1976年6月15日**由苏联(现CIS覆盖区域)发射升空,作为冷战时期航天活动的产物,延续了该系列混编多任务的设计特点,是苏联航天探索进程中,军用空间体系建设的重要组成部分,见证了早期航天技术的发展。

Basic Information
目录编号:
8896
目录名称:
COSMOS 832
国际标识:
1976-054H
轨道中心:
EARTH
卫星名称:
COSMOS 832
卫星全名:
--
卫星状态:
在轨 (已飞行18264 天)
发射日期:
1976-06-15 UTC
国别 :
俄罗斯(独联体) (CIS)
星等 :
--
Orbit Information
数据来源 国际轨道数据 AOE轨道数据
星历时间 2026-06-17T11:33:53+0800
4小时前
查看轨道信息
2026-06-15T06:00:00+0800
2天前
查看轨道信息
半长轴 7879.141km 7879.114km
偏心率 0.0024691 0.0024566
轨道倾角 74.002° 74.002°
近地点辐角 290.891° 292.067°
升交点赤经 315.757° 318.680°
平近点角 180.874° 289.356°
近地点 1481.549km 1481.621km
远地点 1520.459km 1520.333km
周期 116.005分钟 116.005分钟
每日圈数 12.413222 12.413285
Detailed Information
使用方式:
暂无
2D Orbit Map
3D Orbit Map
Orbit Altitude Analysis Chart
Orbit Inclination Analysis Chart
Orbit Comprehensive Analysis Chart
View Comprehensive Chart